Home > Weather > Dawson Creek > Past weeks

Flag for Canada Weather for the Past 2 Weeks in Dawson Creek, British Columbia, Canada

Now
37 °F

Clear.


Feels Like: 37 °F
Forecast: 41 / 71 °F
Wind: 2 mph from North

Location: Dawson Creek Airport

Current Time: May 6, 2016 at 1:18:11 AM

Latest Report: May 6, 2016 at 1:00 AM


Visibility: 9 mi

Pressure: 30.21 "Hg (27.82 "Hg at 668m altitude)

Humidity: 65%

Dew Point: 27 °F

Location of Dawson CreekLocation

Historic Weather in Dawson Creek — Graph

°F

Dawson Creek Temperature Yesterday

Maximum temperature yesterday: 64 °F (at 5:00 PM)
Minimum temperature yesterday: 37 °F (at 5:00 AM)
Average temperature yesterday: 52 °F

High & Low Weather Summary for the Past Weeks

 TemperatureHumidityPressure
High81 °F (May 2, 3:00 PM)100% (Apr 24, 3:00 AM)30.27 "Hg (Apr 24, 3:00 AM)
Low23 °F (Apr 21, 5:00 AM)14% (May 2, 4:00 PM)29.78 "Hg (May 3, 8:00 PM)
Average51 °F52%30.00 "Hg
* Reported Midnight between Apr 20 and Apr 21 — Midnight between May 5 and May 6, Dawson Creek, Weather by CustomWeather, © 2016

Note: Actual official high and low records may vary slightly from our data, if they occured in-between our weather recording intervals... More about our weather records

Advertising

Dawson Creek Weather History for the Previous 24 Hours

Scroll right to see more
 ConditionsComfort  
Time TempWeatherWind HumidityBarometerVisibility
12:00 AM
Fri, May 6
43 °FClear.No wind49%30.20 "Hg9 mi
11:00 PM
Thu, May 5
45 °FClear.3 mph46%30.18 "Hg9 mi
10:00 PM50 °FClear.2 mph32%30.16 "Hg3 mi
9:52 PM50 °FClear.3 mph32%30.16 "Hg5 mi
9:00 PM54 °FSunny.6 mph28%30.14 "Hg9 mi
8:00 PM61 °FSunny.16 mph20%30.10 "Hg9 mi
7:00 PM63 °FSunny.18 mph20%30.08 "Hg9 mi
6:00 PM63 °FSunny.17 mph20%30.07 "Hg9 mi
5:00 PM64 °FSunny.20 mph19%30.06 "Hg9 mi
4:00 PM63 °FSunny.16 mph20%30.07 "Hg9 mi
3:00 PM63 °FSunny.13 mph19%30.08 "Hg9 mi
2:00 PM61 °FSunny.15 mph19%30.09 "Hg9 mi
1:00 PM59 °FSunny.12 mph23%30.11 "Hg9 mi
12:00 PM55 °FSunny.8 mph28%30.12 "Hg9 mi
11:00 AM54 °FSunny.9 mph28%30.12 "Hg9 mi
10:00 AM52 °FSunny.10 mph32%30.13 "Hg9 mi
9:00 AM50 °FSunny.13 mph35%30.13 "Hg9 mi
8:00 AM48 °FSunny.15 mph40%30.14 "Hg9 mi
7:00 AM45 °FSunny.7 mph46%30.12 "Hg9 mi
6:00 AM39 °FClear.6 mph56%30.11 "Hg9 mi
5:00 AM37 °FClear.7 mph60%30.09 "Hg9 mi
4:00 AM39 °FClear.7 mph56%30.07 "Hg9 mi
3:00 AM41 °FClear.8 mph53%30.05 "Hg9 mi
2:00 AM43 °FClear.10 mph46%30.02 "Hg9 mi
1:00 AM46 °FClear.12 mph40%30.00 "Hg9 mi
Weather by CustomWeather, © 2016

See weather overviewHow to use our weather pages